Weather History for Edwards AFB, CA

Change the Weather History Date:

Wednesday, February 27, 2013

  Actual Average Record
Temperature  
Mean Temperature 44 °F -  
Max Temperature 62 °F 59 °F 73 °F (2002)
Min Temperature 26 °F 34 °F 26 °F (2013)
Degree Days  
Heating Degree Days 21    
Moisture  
Dew Point 4 °F    
Average Humidity 19    
Maximum Humidity 29    
Minimum Humidity 11    
Precipitation  
Precipitation 0.00 in - - ()
Sea Level Pressure  
Sea Level Pressure 30.30 in    
Wind  
Wind Speed 6 mph (ENE)    
Max Wind Speed 12 mph    
Max Gust Speed 17 mph    
Visibility 10 miles    
Events      
Averages and records for this station are not official NWS values.
T = Trace of Precipitation, MM = Missing Value Source: NWS Daily Summary

Daily Weather History Graph

Daily Weather History Graph

Search for Another Location

Airport:

Trip Planner

Search our weather history database for the weather conditions in past years. The results will help you decide how hot, cold, wet, or windy it might be!

Date:

Astronomy

Feb. 27, 2013 Rise Set
Actual Time 6:22 AM PST 5:45 PM PST
Civil Twilight 5:57 AM PST 6:11 PM PST
Nautical Twilight 5:28 AM PST 6:40 PM PST
Astronomical Twilight 4:59 AM PST 7:09 PM PST
Moon 8:04 PM PST (2/27) 7:07 AM PST (2/27)
Length of Visible Light 12h 13m
Length of Day
11h 22m
Waning Gibbous, 96% of the Moon is Illuminated
Feb 27
Waning Gibbous
Mar 4
Last Quarter
Mar 11
New
Mar 19
First Quarter
Mar 27
Full

Hourly Weather History & Observations

Time (PST) Temp. Windchill Dew Point Humidity Pressure Visibility Wind Dir Wind Speed Gust Speed Precip Events Conditions
12:58 AM 38.7 °F 32.9 °F 0.9 °F 20% 30.21 in 10.0 mi North 8.1 mph - N/A   Clear
1:58 AM 37.8 °F 32.5 °F 1.2 °F 22% 30.21 in 10.0 mi North 6.9 mph - N/A   Clear
2:58 AM 34.3 °F 27.0 °F 0.3 °F 24% 30.22 in 10.0 mi North 9.2 mph - N/A   Clear
3:58 AM 33.3 °F 28.9 °F 0.9 °F 25% 30.25 in 10.0 mi NNE 4.6 mph - N/A   Clear
4:58 AM 29.5 °F - -1.5 °F 26% 30.27 in 10.0 mi NE 2.3 mph - N/A   Clear
5:58 AM 29.5 °F 23.4 °F -1.1 °F 27% 30.29 in 90.0 mi NNW 5.8 mph - N/A   Clear
6:58 AM 26.4 °F 22.4 °F -2.0 °F 29% 30.33 in 90.0 mi East 3.5 mph - N/A   Clear
7:58 AM 34.2 °F - 2.7 °F 26% 30.36 in 90.0 mi ENE 2.3 mph - N/A   Clear
8:58 AM 40.1 °F 38.0 °F 5.2 °F 24% 30.35 in 90.0 mi North 3.5 mph - N/A   Clear
9:58 AM 48.2 °F - 6.6 °F 18% 30.35 in 90.0 mi NNE 5.8 mph - N/A   Clear
10:54 AM 55.4 °F - 8.6 °F 15% 30.33 in 90.0 mi NE 9.2 mph 17.3 mph N/A   Clear
10:58 AM 56.1 °F - 8.1 °F 15% 30.33 in 90.0 mi ENE 10.4 mph - N/A   Clear
11:58 AM 57.6 °F - 9.0 °F 14% 30.32 in 90.0 mi NE 11.5 mph - N/A   Clear
12:58 PM 57.9 °F - 8.2 °F 14% 30.31 in 90.0 mi Variable 6.9 mph - N/A   Partly Cloudy
1:58 PM 60.3 °F - 7.7 °F 12% 30.28 in 90.0 mi East 9.2 mph - N/A   Partly Cloudy
2:58 PM 61.3 °F - 7.3 °F 12% 30.26 in 90.0 mi East 11.5 mph - N/A   Scattered Clouds
3:58 PM 62.1 °F - 7.2 °F 11% 30.26 in 90.0 mi East 8.1 mph - N/A   Scattered Clouds
4:58 PM 61.3 °F - 6.6 °F 11% 30.28 in 90.0 mi East 5.8 mph - N/A   Scattered Clouds
5:37 PM 59.0 °F - 6.8 °F 13% 30.27 in 90.0 mi SE 5.8 mph - N/A   Partly Cloudy
5:58 PM 55.0 °F - 5.2 °F 13% 30.29 in 80.0 mi SE 5.8 mph - N/A   Partly Cloudy
6:58 PM 49.1 °F - 3.7 °F 16% 30.32 in 30.0 mi SE 5.8 mph - N/A   Clear
7:58 PM 43.9 °F 41.3 °F 2.8 °F 18% 30.33 in 60.0 mi SSE 4.6 mph - N/A   Clear
8:58 PM 40.8 °F 37.8 °F 3.7 °F 21% 30.36 in 60.0 mi ESE 4.6 mph - N/A   Clear
9:58 PM 38.8 °F - 3.2 °F 23% 30.36 in 60.0 mi South 2.3 mph - N/A   Clear
10:58 PM 39.4 °F - 3.0 °F 22% 30.35 in 10.0 mi ENE 1.2 mph - N/A   Clear
11:58 PM 36.1 °F 33.5 °F 1.9 °F 24% 30.36 in 10.0 mi NE 3.5 mph - N/A   Clear